Regional Weather Roundup
Issued by NWS

Home | Current Version | Previous Version | Graphics & Text | Print | Product List | Glossary On
Versions: 1 2 3 4 5 6 7 8 9 10 11 12 13 14 15 16 17 18 19 20 21 22 23 24 25 26 27 28 29 30 31 32 33 34 35 36 37 38 39 40 41 42 43 44 45 46 47 48 49 50
000
ASUS45 KSLC 240810
RWRUT

UTAH REGIONAL WEATHER ROUNDUP
NATIONAL WEATHER SERVICE SALT LAKE CITY UT
200 AM MDT FRI APR 24 2015

UTZ001>011-023>025-240900-

NORTHERN UTAH

CITY           SKY/WX    TMP DP  RH WIND       PRES   REMARKS
BRIGHAM CITY   PTCLDY    48  40  73 CALM      29.74F
HILL AFB       CLOUDY    52  37  57 E13       29.74F
LOGAN          PTCLDY    46  40  79 CALM      29.74F
OGDEN          MOCLDY    50  39  66 CALM      29.73F
PROVO AIRPORT  CLEAR     46  32  57 SE6       29.76S
SALT LAKE CITY MOCLDY    51  38  60 CALM      29.74S
VERNAL         CLOUDY    44  32  62 VRB3      29.80F
WENDOVER       CLOUDY    54  34  47 W8        29.74F
HEBER CITY     CLEAR     36  30  80 CALM      29.78F
WEST JORDAN    CLEAR     48  37  66 N3        29.75S

$$

UTZ012>022-026-027-240900-

SOUTHERN/CENTRAL UTAH

CITY           SKY/WX    TMP DP  RH WIND       PRES   REMARKS
BLANDING       MOCLDY    43  28  56 NE7       29.93S
BRYCE CANYON   PTCLDY    29  18  63 W7        29.91F WCI  22
CEDAR CITY     CLEAR     44  27  51 S8        29.84F
DELTA          PTCLDY    45  23  41 S10       29.79S
HANKSVILLE     PTCLDY    50  23  34 S5        29.77S
MILFORD        PTCLDY    47  27  45 SW13      29.81S
MOAB/CYNLANDS  PTCLDY    54  25  32 E5        29.74F
PRICE          CLOUDY    45  22  40 NW5       29.79F
ST GEORGE      SUNNY     55  28  35 SE7       29.82S
KANAB          CLEAR     37  28  70 CALM      29.90F

$$

REGIONAL REPORTS     COLORADO/ARIZONA

CITY           SKY/WX    TMP DP  RH WIND       PRES   REMARKS
CRAIG, CO      CLEAR     33  29  85 CALM      29.85S
GRAND JUNCTION CLOUDY    50  32  50 E12       29.78F
RIFLE          CLEAR     42  31  64 CALM      29.83F
MONTROSE       PTCLDY    42  29  59 SE9       29.86S
CORTEZ         PTCLDY    50  28  42 S8        29.88F
PAGE, AZ       PTCLDY    60  27  28 W7G20     29.81S
GRAND CANYON   PTCLDY    28  18  66 NE5       29.93F WCI  23
KINGMAN        CLEAR     47  38  71 CALM      29.84F
FLAGSTAFF      CLEAR     35  26  69 SW3       29.93F

$$

REGIONAL REPORTS    NEVADA/IDAHO/WYOMING

CITY           SKY/WX    TMP DP  RH WIND       PRES   REMARKS
LAS VEGAS, NV  PTCLDY    64  37  36 S13       29.71F
ELY            CLOUDY    41  28  60 S8        29.83F
ELKO           PTCLDY    40  34  79 E5        29.76F
POCATELLO, ID  CLEAR     41  28  60 E3        29.71F
BURLEY         PTCLDY    48  37  65 SW15      29.68F
EVANSTON, WY   PTCLDY    37  32  82 SE6       29.82F WCI  32
ROCK SPRINGS   MOCLDY    39  32  76 W7        29.82S WCI  34
KEMMERER       PTCLDY    34  32  93 N6        29.82F WCI  29

$$



USA.gov is the U.S. government's official web portal to all federal, state and local government web resources and services.